FW9318 Weather Reports


time (UTC)temp
C
wind
direction
speed
KPH
gust
KPH
rain 1hr
cm
rain 24hr
cm
rain mn
cm
humidity
%
barometer
mb
20260503220054 30 72 0.0 4.8 0.00 0.00 0.00 26 1010.8
20260503215536 30 89 0.0 4.8 0.00 0.00 0.00 29 1010.9
20260503215035 30 0 0.0 4.8 0.00 0.00 0.00 31 1010.9
20260503214543 30 0 0.0 4.8 0.00 0.00 0.00 32 1010.9
20260503214038 30 0 1.6 4.8 0.00 0.00 0.00 29 1010.9
20260503213535 30 0 1.6 4.8 0.00 0.00 0.00 27 1011.0
20260503213050 30 0 0.0 8.0 0.00 0.00 0.00 40 1010.9
20260503212537 30 0 1.6 8.0 0.00 0.00 0.00 35 1011.0
20260503212034 30 238 0.0 8.0 0.00 0.00 0.00 34 1011.2
20260503211552 30 0 0.0 6.4 0.00 0.00 0.00 34 1011.2
20260503211035 30 0 0.0 6.4 0.00 0.00 0.00 34 1011.2
20260503210535 30 210 0.0 0.0 0.00 0.00 0.00 34 1011.3
20260503210045 30 0 0.0 1.6 0.00 0.00 0.00 35 1011.3
20260503205535 30 0 0.0 9.7 0.00 0.00 0.00 36 1011.4
20260503205035 30 0 0.0 9.7 0.00 0.00 0.00 38 1011.4
20260503204548 29 0 0.0 12.9 0.00 0.00 0.00 34 1011.4
20260503204035 29 0 0.0 12.9 0.00 0.00 0.00 36 1011.4
20260503203535 29 75 0.0 8.0 0.00 0.00 0.00 35 1011.5
20260503203105 29 0 0.0 9.7 0.00 0.00 0.00 37 1011.6
20260503202538 28 0 0.0 9.7 0.00 0.00 0.00 41 1011.6
20260503202035 28 0 1.6 9.7 0.00 0.00 0.00 34 1011.7
20260503201553 28 0 1.6 8.0 0.00 0.00 0.00 41 1011.8
20260503201035 28 37 1.6 8.0 0.00 0.00 0.00 40 1011.8
20260503200536 28 117 0.0 8.0 0.00 0.00 0.00 38 1011.8
20260503200050 28 0 0.0 8.0 0.00 0.00 0.00 39 1011.9
20260503195535 29 0 0.0 3.2 0.00 0.00 0.00 43 1011.9
20260503195035 28 0 0.0 3.2 0.00 0.00 0.00 43 1012.0
20260503194555 28 0 0.0 4.8 0.00 0.00 0.00 42 1012.0
20260503194035 28 0 0.0 4.8 0.00 0.00 0.00 41 1012.0
20260503193536 28 0 0.0 11.3 0.00 0.00 0.00 39 1012.0
20260503193052 27 0 0.0 11.3 0.00 0.00 0.00 39 1012.1
20260503192535 27 75 0.0 11.3 0.00 0.00 0.00 38 1012.2
20260503192035 27 54 1.6 11.3 0.00 0.00 0.00 38 1012.3
20260503191549 27 0 1.6 9.7 0.00 0.00 0.00 42 1012.2
20260503191038 26 73 1.6 11.3 0.00 0.00 0.00 43 1012.3
20260503190536 27 0 0.0 11.3 0.00 0.00 0.00 41 1012.4
20260503190045 26 0 1.6 11.3 0.00 0.00 0.00 40 1012.4
20260503185535 26 103 0.0 3.2 0.00 0.00 0.00 40 1012.5
20260503185035 26 0 0.0 8.0 0.00 0.00 0.00 43 1012.3
20260503184549 26 0 0.0 8.0 0.00 0.00 0.00 44 1012.4
20260503184035 26 49 0.0 8.0 0.00 0.00 0.00 41 1012.5
20260503183534 25 51 0.0 6.4 0.00 0.00 0.00 43 1012.5
20260503183045 25 0 0.0 6.4 0.00 0.00 0.00 47 1012.7
20260503182536 25 4 0.0 4.8 0.00 0.00 0.00 49 1012.7
20260503182036 25 0 0.0 6.4 0.00 0.00 0.00 46 1012.7
20260503181559 24 61 0.0 8.0 0.00 0.00 0.00 49 1012.7
20260503181035 24 65 0.0 8.0 0.00 0.00 0.00 53 1012.7
20260503180536 24 45 0.0 8.0 0.00 0.00 0.00 48 1012.8
20260503180052 24 0 0.0 9.7 0.00 0.00 0.00 48 1012.9
20260503175535 23 0 0.0 9.7 0.00 0.00 0.00 51 1012.9
20260503175035 23 87 0.0 3.2 0.00 0.00 0.00 48 1013.0
20260503174550 23 35 0.0 1.6 0.00 0.00 0.00 54 1013.0
20260503174035 23 0 0.0 8.0 0.00 0.00 0.00 52 1013.0
20260503173535 22 0 0.0 8.0 0.00 0.00 0.00 54 1012.9
20260503173054 22 0 0.0 4.8 0.00 0.00 0.00 55 1013.0
20260503172536 22 0 0.0 11.3 0.00 0.00 0.00 55 1013.0
20260503172034 21 2 1.6 11.3 0.00 0.00 0.00 57 1013.0
20260503171542 21 60 0.0 14.5 0.00 0.00 0.00 56 1013.2
20260503171036 21 46 0.0 14.5 0.00 0.00 0.00 59 1013.0
20260503170535 21 24 3.2 12.9 0.00 0.00 0.00 57 1013.1
20260503150535 16 70 4.8 12.9 0.00 0.00 0.00 70 1013.1
20260503131038 13 51 1.6 8.0 0.00 0.00 0.00 76 1012.8
20260503130535 13 69 1.6 9.7 0.00 0.00 0.00 74 1012.8
20260503110536 15 38 1.6 14.5 0.00 0.00 0.00 73 1013.1
20260503081548 16 0 3.2 12.9 0.00 0.00 0.00 70 1013.4
20260503081035 16 68 0.0 11.3 0.00 0.00 0.00 71 1013.4
20260503080536 16 97 1.6 9.7 0.00 0.00 0.00 73 1013.4
20260503072535 16 80 3.2 11.3 0.00 0.00 0.00 74 1013.6
20260503072035 16 45 1.6 14.5 0.00 0.00 0.00 76 1013.5
20260503071558 16 70 1.6 14.5 0.00 0.00 0.00 76 1013.6
20260503071035 16 77 3.2 8.0 0.00 0.00 0.00 76 1013.5
20260503070535 16 70 1.6 11.3 0.00 0.00 0.00 76 1013.6
20260503060105 17 59 0.0 12.9 0.00 0.00 0.00 74 1013.3
20260503055035 17 59 3.2 12.9 0.00 0.00 0.00 74 1013.3
20260503054549 17 63 3.2 9.7 0.00 0.00 0.00 74 1013.3
20260503054035 16 44 3.2 8.0 0.00 0.00 0.00 76 1013.3
20260503053535 16 80 1.6 6.4 0.00 0.00 0.00 77 1013.4
20260503053048 15 44 0.0 3.2 0.00 0.00 0.00 78 1013.5
20260503052535 15 0 0.0 3.2 0.00 0.00 0.00 78 1013.7
20260503052034 15 0 0.0 1.6 0.00 0.00 0.00 78 1013.8
20260503051548 16 0 0.0 1.6 0.00 0.00 0.00 77 1013.8
20260503051034 16 0 0.0 3.2 0.00 0.00 0.00 76 1013.9
20260503050537 16 40 0.0 3.2 0.00 0.00 0.00 75 1013.8
20260503050044 16 57 0.0 3.2 0.00 0.00 0.00 76 1013.9
20260503045537 16 0 0.0 1.6 0.00 0.00 0.00 77 1013.9
20260503045036 15 0 0.0 1.6 0.00 0.00 0.00 79 1013.9
20260503044553 15 0 0.0 1.6 0.00 0.00 0.00 79 1013.6
20260503044035 15 74 0.0 1.6 0.00 0.00 0.00 79 1013.6
20260503043536 16 0 0.0 0.0 0.00 0.00 0.00 79 1013.8
20260503043054 16 0 0.0 0.0 0.00 0.00 0.00 79 1013.6
20260503042536 15 0 0.0 0.0 0.00 0.00 0.00 79 1013.8
20260503042034 15 0 0.0 0.0 0.00 0.00 0.00 79 1014.0
20260503041546 15 0 0.0 0.0 0.00 0.00 0.00 78 1014.0
20260503041035 15 0 0.0 0.0 0.00 0.00 0.00 78 1013.9
20260503040535 15 0 0.0 0.0 0.00 0.00 0.00 78 1013.9
20260503040047 15 0 0.0 0.0 0.00 0.00 0.00 79 1013.9
20260503035535 15 0 0.0 0.0 0.00 0.00 0.00 80 1013.9
20260503035036 15 0 0.0 0.0 0.00 0.00 0.00 80 1013.8
20260503034549 15 0 0.0 0.0 0.00 0.00 0.00 79 1013.7
20260503034036 15 0 0.0 0.0 0.00 0.00 0.00 79 1013.6
20260503033534 15 0 0.0 0.0 0.00 0.00 0.00 79 1013.6
20260503033056 15 0 0.0 0.0 0.00 0.00 0.00 78 1013.6
20260503032535 15 0 0.0 0.0 0.00 0.00 0.00 78 1013.5
20260503032036 16 0 0.0 1.6 0.00 0.00 0.00 78 1013.5
20260503031546 16 0 0.0 1.6 0.00 0.00 0.00 78 1013.6
20260503031034 16 0 0.0 6.4 0.00 0.00 0.00 77 1013.6
20260503030535 16 0 0.0 6.4 0.00 0.00 0.00 77 1013.4
20260503030052 16 0 0.0 3.2 0.00 0.00 0.00 77 1013.5
20260503025535 16 0 0.0 6.4 0.00 0.00 0.00 77 1013.5
20260503025035 16 217 0.0 6.4 0.00 0.00 0.00 76 1013.5
20260503024554 17 243 0.0 6.4 0.00 0.00 0.00 75 1013.5
20260503024035 17 0 0.0 4.8 0.00 0.00 0.00 75 1013.6
20260503023534 17 156 0.0 4.8 0.00 0.00 0.00 75 1013.5
20260503023101 17 0 0.0 4.8 0.00 0.00 0.00 74 1013.5
20260503022534 18 0 0.0 3.2 0.00 0.00 0.00 75 1013.4
20260503022035 18 219 0.0 0.0 0.00 0.00 0.00 74 1013.3
20260503021554 18 0 0.0 0.0 0.00 0.00 0.00 74 1013.2
20260503021034 19 0 0.0 0.0 0.00 0.00 0.00 72 1013.0
20260503020534 19 0 0.0 0.0 0.00 0.00 0.00 73 1012.8
20260503020050 19 0 0.0 1.6 0.00 0.00 0.00 71 1012.7
20260503015534 19 0 0.0 1.6 0.00 0.00 0.00 71 1012.8
20260503015035 19 0 0.0 1.6 0.00 0.00 0.00 70 1012.8
20260503014549 19 0 0.0 3.2 0.00 0.00 0.00 70 1012.7
20260503014035 19 0 0.0 3.2 0.00 0.00 0.00 70 1012.5
20260503013535 19 0 0.0 0.0 0.00 0.00 0.00 71 1012.5
20260503013058 19 0 0.0 0.0 0.00 0.00 0.00 73 1012.4
20260503012535 19 0 0.0 1.6 0.00 0.00 0.00 72 1012.5
20260503012035 19 0 0.0 1.6 0.00 0.00 0.00 72 1012.5
20260503011600 19 0 0.0 0.0 0.00 0.00 0.00 72 1012.6
20260503011036 18 0 0.0 0.0 0.00 0.00 0.00 71 1012.5
20260503010534 18 0 0.0 3.2 0.00 0.00 0.00 74 1012.5
20260503010055 18 0 0.0 3.2 0.00 0.00 0.00 72 1012.6
20260503005536 18 219 1.6 3.2 0.00 0.00 0.00 71 1012.7
20260503005035 18 0 0.0 1.6 0.00 0.00 0.00 73 1012.5
20260503004548 18 0 0.0 1.6 0.00 0.00 0.00 73 1012.5
20260503004035 18 0 0.0 1.6 0.00 0.00 0.00 73 1012.5
20260503003535 18 0 0.0 1.6 0.00 0.00 0.00 72 1012.6
20260503003108 18 222 0.0 4.8 0.00 0.00 0.00 74 1012.5
20260503002535 18 0 0.0 4.8 0.00 0.00 0.00 72 1012.5
20260503002035 18 222 1.6 4.8 0.00 0.00 0.00 71 1012.5
20260503001545 18 0 0.0 4.8 0.00 0.00 0.00 73 1012.5
20260503001036 18 0 0.0 4.8 0.00 0.00 0.00 71 1012.6
20260503000537 18 0 1.6 8.0 0.00 0.00 0.00 71 1012.6
20260503000059 18 0 3.2 8.0 0.00 0.00 0.00 71 1012.6
20260502235536 18 0 0.0 6.4 0.00 0.00 0.00 71 1012.6
20260502235036 18 211 1.6 6.4 0.00 0.00 0.00 71 1012.7
20260502234547 18 224 0.0 6.4 0.00 0.00 0.00 74 1012.7
20260502234036 18 0 0.0 6.4 0.00 0.00 0.00 72 1012.8
20260502233536 18 222 1.6 8.0 0.00 0.00 0.00 71 1012.9
20260502233051 18 231 1.6 8.0 0.00 0.00 0.00 71 1012.9
20260502232536 18 231 4.8 6.4 0.00 0.00 0.00 71 1013.0
20260502232036 18 0 1.6 6.4 0.00 0.00 0.00 70 1013.0
20260502231548 19 224 0.0 6.4 0.00 0.00 0.00 69 1013.0
20260502231037 19 245 1.6 6.4 0.00 0.00 0.00 69 1013.1
20260502230537 20 0 0.0 3.2 0.00 0.00 0.00 67 1013.2
20260502230047 20 0 0.0 0.0 0.00 0.00 0.00 66 1013.2
20260502225536 19 0 0.0 6.4 0.00 0.00 0.00 67 1013.2
20260502225037 19 0 0.0 6.4 0.00 0.00 0.00 66 1013.4
20260502224553 18 0 0.0 9.7 0.00 0.00 0.00 65 1013.4
20260502224036 18 72 0.0 9.7 0.00 0.00 0.00 65 1013.5
20260502223536 18 92 3.2 9.7 0.00 0.00 0.00 65 1013.8
20260502223050 18 0 4.8 9.7 0.00 0.00 0.00 65 1013.7
20260502222536 18 0 0.0 6.4 0.00 0.00 0.00 67 1013.8
20260502222037 18 82 0.0 6.4 0.00 0.00 0.00 68 1013.9
20260502221545 18 41 0.0 4.8 0.00 0.00 0.00 66 1013.9
20260502221037 18 0 0.0 4.8 0.00 0.00 0.00 67 1014.0
20260502220537 18 0 0.0 4.8 0.00 0.00 0.00 66 1014.2